• In Uzbekistan
  • List of Countries
  • For 7 days
  • Water Temperature
  • Satellite Maps
  • Weather Map
  • Weather Widgets
  • user-avatar
    Login

    Hourly Weather Cacapava

    Today, 17 October, Tuesday

    Time Temperature Precipitation Wind Pressure Humidity
    00:00 +19°C° 0 mm 1 mps 717 mmHg 95%
    01:00 +19°C° 0 mm 1 mps 717 mmHg 95%
    02:00 +19°C° 0 mm 1 mps 716 mmHg 95%
    03:00 +18°C° 0 mm 2 mps 716 mmHg 94%
    04:00 +19°C° 0 mm 1 mps 716 mmHg 94%
    05:00 +19°C° 0 mm 1 mps 716 mmHg 94%
    06:00 +19°C° 0 mm 1 mps 717 mmHg 94%
    07:00 +20°C° 0 mm 2 mps 717 mmHg 82%
    08:00 +24°C° 0 mm 2 mps 718 mmHg 71%
    09:00 +26°C° 0 mm 2 mps 718 mmHg 60%
    10:00 +28°C° 0 mm 2 mps 718 mmHg 55%
    11:00 +30°C° 0 mm 2 mps 718 mmHg 49%
    12:00 +31°C° 0 mm 2 mps 718 mmHg 44%
    13:00 +31°C° 0 mm 2 mps 717 mmHg 44%
    14:00 +31°C° 0 mm 2 mps 717 mmHg 44%
    15:00 +31°C° 0 mm 2 mps 716 mmHg 44%
    16:00 +29°C° 0 mm 2 mps 716 mmHg 53%
    17:00 +27°C° 0 mm 2 mps 716 mmHg 62%
    18:00 +25°C° 0 mm 2 mps 716 mmHg 71%
    19:00 +24°C° 0 mm 2 mps 716 mmHg 76%
    20:00 +23°C° 0 mm 2 mps 716 mmHg 81%
    21:00 +21°C° 0 mm 2 mps 717 mmHg 85%
    22:00 +21°C° 0 mm 2 mps 717 mmHg 86%
    23:00 +20°C° 0 mm 2 mps 716 mmHg 86%

    Tomorrow, 18 October, Wednesday

    Time Temperature Precipitation Wind Pressure Humidity
    00:00 +20°C° 0 mm 2 mps 716 mmHg 87%
    01:00 +19°C° 0 mm 2 mps 716 mmHg 88%
    02:00 +19°C° 0 mm 2 mps 715 mmHg 88%
    03:00 +19°C° 0 mm 2 mps 715 mmHg 89%
    04:00 +19°C° 0 mm 2 mps 715 mmHg 89%
    05:00 +19°C° 0 mm 2 mps 715 mmHg 89%
    06:00 +19°C° 0 mm 2 mps 715 mmHg 89%
    07:00 +23°C° 0 mm 2 mps 716 mmHg 78%
    08:00 +25°C° 0 mm 2 mps 716 mmHg 66%
    09:00 +28°C° 0 mm 2 mps 717 mmHg 55%
    10:00 +30°C° 0 mm 2 mps 717 mmHg 49%
    11:00 +32°C° 0 mm 2 mps 716 mmHg 43%
    12:00 +34°C° 0 mm 2 mps 716 mmHg 37%
    13:00 +34°C° 0 mm 2 mps 715 mmHg 38%
    14:00 +34°C° 0 mm 2 mps 714 mmHg 38%
    15:00 +34°C° 0 mm 2 mps 714 mmHg 39%
    16:00 +31°C° 0 mm 2 mps 713 mmHg 46%
    17:00 +29°C° 0 mm 2 mps 713 mmHg 54%
    18:00 +27°C° 0 mm 1 mps 713 mmHg 61%
    19:00 +26°C° 0 mm 1 mps 713 mmHg 64%
    20:00 +25°C° 0 mm 2 mps 713 mmHg 66%
    21:00 +24°C° 0 mm 2 mps 714 mmHg 68%
    22:00 +23°C° 0 mm 2 mps 714 mmHg 68%
    23:00 +23°C° 0 mm 2 mps 713 mmHg 67%

    Day after tomorrow, 19 October, Thursday

    Time Temperature Precipitation Wind Pressure Humidity
    00:00 +21°C° 0 mm 2 mps 713 mmHg 67%
    01:00 +21°C° 0 mm 2 mps 713 mmHg 67%
    02:00 +21°C° 0 mm 2 mps 712 mmHg 67%
    03:00 +21°C° 0 mm 3 mps 712 mmHg 67%
    04:00 +20°C° 0 mm 3 mps 712 mmHg 68%
    05:00 +20°C° 0 mm 2 mps 712 mmHg 70%
    06:00 +20°C° 0 mm 2 mps 712 mmHg 71%
    07:00 +24°C° 0 mm 3 mps 713 mmHg 63%
    08:00 +26°C° 0 mm 3 mps 713 mmHg 54%
    09:00 +29°C° 0 mm 3 mps 714 mmHg 46%
    10:00 +31°C° 0 mm 3 mps 714 mmHg 41%
    11:00 +34°C° 0 mm 3 mps 713 mmHg 36%
    12:00 +35°C° 0 mm 3 mps 713 mmHg 31%
    13:00 +35°C° 0 mm 2 mps 712 mmHg 32%
    14:00 +35°C° 0 mm 2 mps 712 mmHg 33%
    15:00 +35°C° 0 mm 2 mps 711 mmHg 34%
    16:00 +32°C° 0 mm 2 mps 711 mmHg 40%
    17:00 +30°C° 0 mm 2 mps 710 mmHg 46%
    18:00 +28°C° 0 mm 1 mps 710 mmHg 52%
    19:00 +27°C° 0 mm 1 mps 711 mmHg 54%
    20:00 +26°C° 0 mm 1 mps 711 mmHg 56%
    21:00 +25°C° 0 mm 2 mps 711 mmHg 58%
    22:00 +25°C° 0 mm 2 mps 711 mmHg 57%
    23:00 +25°C° 0 mm 2 mps 711 mmHg 57%

    20 October, Friday

    Time Temperature Precipitation Wind Pressure Humidity
    00:00 +25°C° 0 mm 2 mps 710 mmHg 56%
    01:00 +25°C° 0 mm 2 mps 710 mmHg 56%
    02:00 +25°C° 0 mm 2 mps 710 mmHg 55%
    03:00 +25°C° 0 mm 2 mps 710 mmHg 54%
    04:00 +24°C° 0 mm 1 mps 710 mmHg 57%
    05:00 +24°C° 0 mm 1 mps 711 mmHg 60%
    06:00 +23°C° 0 mm 1 mps 712 mmHg 62%
    07:00 +25°C° 0 mm 1 mps 712 mmHg 58%
    08:00 +26°C° 0 mm 1 mps 713 mmHg 54%
    09:00 +28°C° 0 mm 1 mps 714 mmHg 50%
    10:00 +29°C° 0 mm 2 mps 714 mmHg 46%
    11:00 +31°C° 0 mm 2 mps 714 mmHg 41%
    12:00 +32°C° 0 mm 2 mps 714 mmHg 37%
    13:00 +32°C° 0 mm 2 mps 713 mmHg 41%
    14:00 +31°C° 0 mm 2 mps 713 mmHg 44%
    15:00 +31°C° 0 mm 2 mps 712 mmHg 48%
    16:00 +29°C° 0.4 mm 2 mps 712 mmHg 56%
    17:00 +27°C° 0.4 mm 2 mps 712 mmHg 64%
    18:00 +25°C° 0.4 mm 2 mps 712 mmHg 72%
    19:00 +24°C° 0.1 mm 1 mps 712 mmHg 75%
    20:00 +23°C° 0.1 mm 1 mps 712 mmHg 78%
    21:00 +22°C° 0.1 mm 1 mps 712 mmHg 81%
    22:00 +22°C° 0 mm 1 mps 712 mmHg 80%
    23:00 +22°C° 0 mm 1 mps 712 mmHg 78%

    21 October, Saturday

    Time Temperature Precipitation Wind Pressure Humidity
    00:00 +22°C° 0 mm 1 mps 712 mmHg 76%
    01:00 +22°C° 0 mm 1 mps 712 mmHg 74%
    02:00 +23°C° 0 mm 1 mps 711 mmHg 72%
    03:00 +23°C° 0 mm 1 mps 711 mmHg 70%
    04:00 +23°C° 0 mm 1 mps 712 mmHg 69%
    05:00 +23°C° 0 mm 1 mps 712 mmHg 68%
    06:00 +23°C° 0 mm 1 mps 712 mmHg 66%
    07:00 +25°C° 0 mm 2 mps 713 mmHg 59%
    08:00 +28°C° 0 mm 3 mps 713 mmHg 51%
    09:00 +30°C° 0 mm 4 mps 713 mmHg 43%
    10:00 +32°C° 0 mm 4 mps 713 mmHg 39%
    11:00 +34°C° 0 mm 4 mps 712 mmHg 36%
    12:00 +35°C° 0 mm 5 mps 712 mmHg 32%
    13:00 +36°C° 0 mm 4 mps 711 mmHg 31%
    14:00 +36°C° 0 mm 4 mps 711 mmHg 30%
    15:00 +37°C° 0 mm 4 mps 710 mmHg 29%
    16:00 +34°C° 0 mm 3 mps 710 mmHg 35%
    17:00 +31°C° 0 mm 3 mps 710 mmHg 41%
    18:00 +29°C° 0 mm 2 mps 710 mmHg 46%
    19:00 +28°C° 0 mm 2 mps 711 mmHg 50%
    20:00 +27°C° 0 mm 1 mps 711 mmHg 54%
    21:00 +26°C° 0 mm 1 mps 712 mmHg 58%
    22:00 +25°C° 0 mm 1 mps 711 mmHg 60%
    23:00 +25°C° 0 mm 1 mps 711 mmHg 63%

    22 October, Sunday

    Time Temperature Precipitation Wind Pressure Humidity
    00:00 +24°C° 0 mm 1 mps 711 mmHg 65%
    01:00 +24°C° 0 mm 1 mps 710 mmHg 65%
    02:00 +24°C° 0 mm 1 mps 710 mmHg 66%
    03:00 +24°C° 0 mm 1 mps 710 mmHg 67%
    04:00 +24°C° 0.1 mm 1 mps 710 mmHg 66%
    05:00 +24°C° 0.1 mm 1 mps 711 mmHg 66%
    06:00 +24°C° 0.1 mm 1 mps 711 mmHg 65%
    07:00 +26°C° 0 mm 2 mps 712 mmHg 59%
    08:00 +28°C° 0 mm 3 mps 712 mmHg 53%
    09:00 +30°C° 0 mm 4 mps 713 mmHg 46%
    10:00 +32°C° 0 mm 4 mps 712 mmHg 45%
    11:00 +33°C° 0 mm 4 mps 712 mmHg 43%
    12:00 +34°C° 0 mm 4 mps 712 mmHg 42%
    13:00 +33°C° 0.2 mm 4 mps 712 mmHg 46%
    14:00 +32°C° 0.2 mm 4 mps 711 mmHg 51%
    15:00 +30°C° 0.2 mm 4 mps 711 mmHg 56%
    16:00 +28°C° 0.6 mm 3 mps 711 mmHg 65%
    17:00 +26°C° 0.6 mm 2 mps 711 mmHg 74%
    18:00 +24°C° 0.6 mm 1 mps 711 mmHg 83%
    19:00 +24°C° 0.4 mm 1 mps 711 mmHg 85%
    20:00 +23°C° 0.4 mm 1 mps 711 mmHg 86%
    21:00 +23°C° 0.4 mm 1 mps 711 mmHg 87%
    22:00 +23°C° 0.1 mm 1 mps 711 mmHg 87%
    23:00 +22°C° 0.1 mm 1 mps 711 mmHg 88%
    Show more